Location: Zengebe
(1.4833°N, 32.5167°E)
Time: 22:19:43
(UTC+00:00)

Ariane H10 - Pass Details

Date: 07 June 2020
Orbit: 421 x 34704 km, 4.0° (Epoch: 10 July)

Event Time Altitude Azimuth Distance (km) Brightness Sun altitude
Exits shadow 02:35:11 40° 244° (WSW) 646 2.2 -16.3°
Maximum altitude 02:35:59 66° 176° (S) 454 1.7 -16.1°
Drops below altitude 10° 02:38:50 10° 92° (E) 1,661 5.8 -15.5°
Sets 02:41:27 0° 89° (E) 3,072 7.4 -14.9°
